Regional Weather Roundup
Issued by NWS Kansas City/Pleasant Hill, MO

Home | Current Version | Previous Version | Graphics & Text | Print | Product List | Glossary Off
Versions: 1 2 3 4 5 6 7 8 9 10 11 12 13 14 15 16 17 18 19 20 21 22 23 24 25 26 27 28 29 30 31 32 33 34 35 36 37 38 39 40 41 42 43 44 45 46 47 48 49 50

000
ASUS43 KEAX 251404
RWREAX

WEATHER ROUNDUP FOR EASTERN KANSAS AND NORTHWEST MISSOURI
NATIONAL WEATHER SERVICE KANSAS CITY/PLEASANT HILL MO
800 AM CST THU DEC 25 2014

KSZ040-057-103>105-MOZ028-029-037-043-251500-
...KANSAS CITY METROPOLITAN AREA...

CITY           SKY/WX    TMP DP  RH WIND       PRES   REMARKS
K.C. INTL      MOCLDY    34  26  72 S16       29.78S WCI  24
K.C. DOWNTOWN  CLEAR     34  27  75 S9        29.81S WCI  27
LEES SUMMIT    PTCLDY    32  27  81 S13       29.83R WCI  22
OLATHE - IXD   CLEAR     32  27  81 S15       29.80S WCI  22
OLATHE - OJC   CLEAR     33  27  78 S15       29.80S WCI  23
LAWRENCE       CLEAR     31  26  82 SE12      29.78S WCI  22

$$

MOZ001>008-011>017-020>025-030>033-038>040-044>046-053-054-251500-
...NORTHERN AND CENTRAL MISSOURI...

CITY           SKY/WX    TMP DP  RH WIND       PRES   REMARKS
ST. JOSEPH     PTCLDY    34  27  75 S13       29.76F WCI  25
MOSBY            N/A     34  30  86 S8        29.83R WCI  27
WARRENSBURG    PTCLDY    32  28  86 SE8       29.87S WCI  25
WHITEMAN AFB   NOT AVBL
CLINTON        PTCLDY    36  32  87 S12       29.90S WCI  27
SEDALIA        CLEAR     34  28  79 S14       29.90R WCI  25
WARSAW         NOT AVBL
MARSHALL       CLEAR     34  32  93 S12       29.89R WCI  25
CHILLICOTHE      N/A     32  28  85 S7        29.85R WCI  26
MOBERLY        CLEAR     32  27  80 S10       29.90R WCI  24
KIRKSVILLE     CLEAR     31  29  92 S10       29.86R WCI  22

$$

MOZ041-047>049-056>058-063>065-088>090-097-251500-
...EASTERN AND SOUTHERN MISSOURI...

CITY           SKY/WX    TMP DP  RH WIND       PRES   REMARKS
ST. LOUIS INTL PTCLDY    36  29  75 S9        30.01R WCI  29
SPIRIT OF STL  CLEAR     33  29  85 CALM      29.99R
COLUMBIA       CLEAR     31  28  89 S12       29.93R WCI  22
JEFFERSON CITY CLEAR     31  27  85 E5        29.96R WCI  26
MEXICO         CLEAR    N/A N/A N/A S9        29.92R
HANNIBAL       CLEAR     32  30  93 S10       29.91S WCI  24
ROLLA          CLEAR     32  28  85 S12       29.95R WCI  23
OSAGE BEACH    CLEAR     30  27  86 S8        29.95R WCI  23
SPRINGFIELD    CLEAR     31  27  85 S12       29.92S WCI  22
BRANSON        PTCLDY    30  27  86 CALM      29.97S
NEVADA         CLEAR     32  28  86 S10       29.90R WCI  24
JOPLIN         CLEAR     36  27  69 S16       29.90R WCI  26
WEST PLAINS    CLEAR     32  27  81 S7        30.02R WCI  26

$$

IAZ060-094-KSZ022-034>040-054-083-096-NEZ052-066-093-251500-
...KANSAS...SOUTHEAST NEBRASKA AND IOWA...

CITY           SKY/WX    TMP DP  RH WIND       PRES   REMARKS
TOPEKA         PTCLDY    36  26  67 S13       29.75R WCI  27
MANHATTAN      PTCLDY    38  25  59 S9        29.67R WCI  31
EMPORIA        PTCLDY    30  26  85 S16       29.72F WCI  19
CHANUTE        CLEAR     35  28  75 S15       29.83R WCI  25
WICHITA        PTCLDY    38  24  57 S25G32    29.67S WCI  27
OMAHA          CLOUDY    32  27  81 S13       29.66R WCI  22
LINCOLN        MOCLDY    31  24  75 S7        29.63R WCI  24
FALLS CITY     MOCLDY    34  26  72 S15G22    29.69S WCI  24
LAMONI         CLOUDY    30  27  88 S13       29.76S WCI  20
DES MOINES     CLOUDY    33  28  81 S10       29.74R WCI  25

$$




USA.gov is the U.S. government's official web portal to all federal, state and local government web resources and services.